Wetbulb
54.35 54.48 54.49 54.58 54.27 54.22 54.61 55.16 55.40 55.10 54.97 54.73 54.51 54.49 55.36 56.03 56.52 57.69 55.06 58.34 60.93 63.96 65.99 64.12 63.88 63.79 61.99 59.50 58.22 59.64 53.67 52.00 53.63 54.31 54.67 58.49 57.81 60.25 61.20 59.77 60.56 61.27 61.54 63.18 64.53
53.92 54.13 54.35 54.19 53.88 53.91 53.83 54.05 54.38 55.12 55.05 55.07 54.74 54.21 54.99 55.86 54.90 53.51 60.44 64.22 64.96 65.14 56.82 58.58 59.25 59.54 59.21 58.47 57.69 55.58 53.70 54.03 57.49 57.73 56.95 58.52 58.47 59.08 58.96 58.96 59.14 60.05 62.55 63.84 64.63
52.98 53.46 53.60 53.81 54.07 54.05 53.54 53.67 53.94 54.25 54.50 54.80 54.59 54.46 54.10 55.50 52.77 52.14 61.57 63.57 64.55 64.65 55.02 56.85 60.35 58.68 55.94 58.58 57.95 56.76 53.49 57.72 58.37 59.28 59.03 58.82 58.86 60.13 58.50 57.47 59.24 58.52 60.92 62.74 63.40
52.78 52.88 53.65 53.86 54.02 54.12 53.74 53.68 53.80 53.98 54.07 54.17 54.50 54.31 54.32 54.99 45.13 58.15 59.00 61.20 62.34 62.45 55.40 53.16 55.23 56.57 54.16 53.43 57.23 55.28 57.61 58.29 58.83 59.24 58.67 57.92 58.78 58.47 59.03 59.33 61.29 61.03 62.31 62.82 62.32
52.75 53.11 53.52 53.69 53.90 53.96 54.11 54.08 54.14 54.24 54.20 53.99 53.96 54.36 53.47 49.97 50.39 58.75 60.91 61.64 58.40 61.32 57.69 53.43 52.80 55.20 54.08 54.40 55.60 54.58 56.07 57.86 59.02 59.02 58.96 59.46 57.77 58.18 58.53 60.76 61.79 61.66 62.07 62.00 62.47
52.81 53.06 53.31 53.62 53.79 53.98 54.52 54.52 54.25 53.84 53.77 53.84 54.04 53.86 51.14 43.39 55.17 56.29 56.62 56.29 56.99 56.79 58.31 56.20 54.40 56.41 56.09 55.87 54.80 56.19 55.94 56.07 56.93 57.07 58.08 57.15 57.44 58.12 59.14 61.00 60.41 60.60 61.07 61.66 61.55
52.52 52.91 53.10 53.34 53.66 53.40 54.21 53.95 53.81 54.01 53.66 54.00 54.43 53.78 49.17 47.77 54.49 55.22 55.40 54.90 55.60 55.52 53.81 58.03 57.58 55.45 56.79 55.19 57.92 57.03 54.15 55.81 56.25 56.40 55.77 57.31 54.69 55.40 58.85 59.76 59.41 59.60 60.41 60.89 61.01
52.82 53.43 53.03 53.26 53.41 53.47 53.41 53.74 53.72 53.81 53.93 54.39 54.37 53.32 46.13 53.73 54.97 52.87 53.68 52.73 55.07 55.96 55.68 56.62 57.91 56.29 55.53 56.94 55.75 53.56 54.50 50.34 55.08 55.96 56.33 56.00 50.64 56.43 59.24 58.92 58.63 58.84 59.27 59.68 60.74
53.25 53.25 53.04 53.17 53.36 53.14 53.72 53.39 53.39 53.95 54.08 54.22 53.03 50.76 45.44 55.19 50.93 53.14 53.26 50.42 52.98 54.91 55.53 55.81 54.63 53.00 53.81 50.83 49.96 52.41 48.22 49.87 52.01 56.37 55.78 54.81 52.38 56.74 58.93 58.14 58.08 58.77 59.00 59.03 60.06
53.11 53.04 53.10 52.85 52.88 53.18 53.14 52.55 54.25 52.59 53.67 55.35 54.16 47.38 50.00 46.10 49.36 51.37 54.50 53.14 51.04 52.22 52.16 51.81 50.71 48.45 49.44 48.61 43.37 46.94 48.06 49.54 49.42 53.70 54.72 53.53 53.56 56.31 57.17 57.05 57.23 58.05 58.72 59.14 59.30
52.69 52.87 52.63 52.77 52.85 52.54 52.31 53.51 50.19 49.24 52.20 47.42 46.18 46.91 47.19 49.84 50.74 48.66 51.10 50.10 51.80 50.06 46.20 50.03 45.49 43.62 46.53 49.35 50.37 50.10 49.54 49.06 51.68 54.51 52.70 52.23 52.80 55.01 56.43 56.75 56.65 57.60 58.47 59.21 59.40
52.46 52.13 52.46 52.60 52.91 52.42 52.37 48.36 48.24 49.34 42.70 48.18 47.60 47.41 48.85 49.69 44.92 47.49 50.83 46.10 46.69 44.06 47.12 46.95 43.37 47.67 49.17 49.60 49.02 48.53 47.72 48.22 51.57 53.86 52.62 52.52 52.15 55.08 56.34 56.59 56.99 57.05 57.71 58.48 59.35
52.61 52.32 51.98 52.15 51.81 52.00 50.53 49.41 53.17 52.42 42.59 44.39 46.94 46.37 47.12 49.05 45.52 45.90 48.52 46.45 43.67 43.78 44.94 43.72 46.41 49.02 47.51 47.22 47.15 48.09 47.23 48.07 48.56 52.13 52.72 52.20 50.43 52.23 54.92 56.15 56.52 57.04 57.82 58.42 59.12
52.29 52.29 51.73 50.87 48.81 51.70 48.81 52.22 53.23 52.78 36.80 39.62 43.31 45.64 47.73 48.79 44.60 51.01 51.05 46.97 43.94 40.81 45.23 44.83 48.09 47.56 46.69 45.99 47.47 44.91 50.30 49.74 49.23 48.39 44.88 51.58 43.80 50.28 52.88 53.45 54.97 56.37 57.38 58.10 59.32
52.04 52.34 51.90 50.21 50.12 48.43 50.54 53.21 53.05 50.13 24.93 40.10 42.46 51.72 47.59 44.49 45.21 46.46 51.76 48.26 41.35 42.09 42.63 42.78 44.93 45.20 45.58 46.25 48.72 47.20 50.67 50.26 49.75 47.64 47.19 47.21 44.76 47.97 51.97 50.94 53.25 55.63 56.76 58.27 59.09
51.89 51.59 50.40 52.11 51.75 52.15 53.82 52.79 49.35 34.28 24.98 37.27 42.10 41.60 41.88 43.20 43.49 45.37 46.15 49.90 48.54 43.15 43.57 44.14 48.73 47.70 46.95 48.93 49.37 50.20 49.20 49.65 49.95 47.82 41.79 45.97 45.43 45.89 48.89 51.32 53.53 55.98 57.09 58.32 59.42
51.67 51.00 50.92 53.26 48.69 54.06 53.37 47.81 32.89 28.07 38.09 34.13 36.30 39.53 39.23 39.08 40.04 41.41 40.43 40.95 40.46 36.98 36.87 41.19 43.36 47.76 49.13 46.01 49.17 49.11 47.35 41.24 39.69 39.95 40.22 47.56 45.43 47.33 52.18 53.65 54.73 55.42 56.95 57.98 61.34
50.87 49.68 50.64 52.80 53.38 53.25 49.57 40.34 27.97 34.48 34.83 39.57 38.55 38.59 36.17 38.54 39.00 38.95 39.61 37.70 41.50 41.30 39.55 35.84 34.75 43.46 48.08 46.80 45.73 46.73 47.06 42.08 36.09 38.98 41.69 47.52 43.23 47.62 53.80 55.54 55.94 56.61 57.41 61.14 62.57
49.31 53.56 51.31 53.46 53.99 52.11 42.26 32.85 30.98 35.16 38.12 36.52 38.13 34.43 35.83 37.59 38.20 38.06 37.96 38.24 40.95 41.25 36.02 37.76 37.09 44.88 46.99 48.39 47.86 46.19 44.69 49.07 45.42 47.06 44.01 46.20 48.94 52.39 54.69 55.09 55.25 56.45 57.17 60.41 62.34
50.71 50.41 50.82 53.87 53.73 50.07 41.29 32.93 36.06 39.91 39.57 38.98 32.25 35.61 32.08 34.96 35.67 37.25 36.27 39.45 38.76 40.82 42.86 42.17 37.07 43.33 46.60 48.05 48.34 47.85 50.13 43.47 46.40 39.40 38.61 43.96 46.10 45.77 51.42 52.88 54.59 56.41 57.14 59.69 62.47
50.29 46.29 51.32 54.00 53.39 45.54 35.81 36.07 38.46 41.05 41.14 37.18 35.04 34.69 35.46 34.33 35.83 35.58 35.51 39.49 39.91 40.82 42.80 42.30 38.81 42.20 45.42 44.87 43.73 45.22 45.56 46.79 47.59 46.03 41.27 40.43 43.22 52.23 53.11 54.52 54.84 55.99 58.37 61.16 62.25
49.19 42.18 51.12 54.46 41.52 42.27 36.62 38.80 39.65 40.00 41.46 39.94 39.27 37.29 36.01 36.06 34.80 35.55 34.53 38.00 41.20 41.83 38.90 44.18 40.12 37.52 42.07 48.03 48.56 47.81 47.05 47.70 43.98 43.32 45.43 45.02 45.44 54.96 54.75 55.75 57.47 58.24 60.26 62.04 62.55
45.81 46.56 52.01 49.99 36.42 36.39 40.21 39.20 40.23 39.42 39.19 38.66 36.91 39.68 40.68 36.70 33.15 36.73 37.96 41.03 40.50 40.15 38.83 41.55 39.73 34.00 39.30 44.98 46.90 45.80 47.36 49.10 49.11 49.72 44.52 42.63 45.31 54.80 55.87 56.62 57.59 58.40 60.71 61.50 62.12
46.19 41.41 46.45 48.76 42.44 37.72 36.38 37.39 36.69 41.67 40.27 40.58 39.14 40.39 37.68 36.11 38.59 35.66 36.53 39.52 40.75 40.14 42.25 41.59 39.98 38.52 36.02 41.43 45.02 43.89 46.15 48.56 48.47 45.00 45.52 45.28 47.34 51.81 54.55 55.33 57.42 59.33 61.03 61.18 61.51
47.64 42.48 42.73 38.30 39.16 36.87 37.14 37.55 35.42 35.21 39.03 40.67 39.19 38.68 37.10 33.74 35.99 36.05 37.92 39.52 39.58 40.47 39.81 40.30 36.04 39.97 39.41 42.59 45.77 45.20 45.67 46.99 46.89 47.95 45.68 47.44 47.24 50.55 54.50 55.51 56.56 59.60 60.56 60.50 60.97
42.30 40.45 43.68 40.27 39.99 36.89 38.53 36.74 35.64 36.95 37.37 36.93 36.59 38.73 39.28 35.95 36.38 35.03 37.77 38.28 36.46 40.38 39.74 41.43 36.54 38.40 35.55 40.90 44.30 44.42 45.99 46.49 47.34 48.14 48.35 48.57 48.19 52.13 54.20 55.86 55.87 57.90 59.51 60.00 60.76
48.38 46.60 42.12 39.26 38.38 36.44 37.33 37.18 36.30 38.27 40.36 40.34 38.78 37.81 38.15 39.56 42.54 43.15 43.54 42.81 41.87 39.02 38.44 38.46 37.46 37.34 31.74 39.99 41.78 40.77 45.68 46.41 47.36 49.37 49.36 46.22 49.44 53.36 53.30 54.59 56.78 57.60 58.74 60.23 61.30
MSLP
1021.19 1020.94 1020.70 1020.44 1020.09 1019.75 1019.44 1019.23 1018.94 1018.40 1018.01 1017.45 1017.18 1016.89 1016.50 1016.23 1015.24 1013.71 1012.13 1009.98 1010.00 1010.77 1011.13 1010.14 1009.65 1009.25 1009.15 1008.30 1007.76 1006.77 1005.40 1003.36 1002.09 1001.05 1000.30 1000.06 999.82 999.99 1000.54 1001.26 1001.03 1000.99 1001.10 1001.39 1001.46
1021.26 1020.90 1020.60 1020.29 1019.99 1019.74 1019.50 1019.12 1018.64 1018.03 1017.80 1017.45 1017.30 1017.01 1016.53 1015.87 1014.30 1011.78 1009.82 1009.66 1010.07 1010.53 1010.28 1009.11 1008.80 1008.61 1008.04 1007.31 1006.85 1006.10 1004.43 1003.02 1001.97 1000.91 1000.37 999.95 999.78 999.82 1000.19 1000.29 1000.82 1000.83 1000.93 1000.87 1000.71
1021.36 1020.94 1020.50 1020.16 1019.85 1019.62 1019.43 1019.09 1018.65 1018.37 1018.02 1017.56 1017.29 1016.92 1016.38 1015.50 1012.59 1008.76 1009.42 1009.48 1010.10 1010.31 1009.59 1008.62 1008.06 1007.53 1006.76 1005.97 1005.35 1004.82 1003.20 1002.81 1001.59 1000.90 1000.49 1000.04 999.87 999.98 1000.23 1000.27 1000.46 1000.52 1000.75 1000.92 1001.01
1021.62 1021.17 1020.69 1020.16 1019.65 1019.16 1018.79 1018.53 1018.40 1018.24 1017.79 1017.45 1017.27 1016.74 1016.27 1015.05 1010.54 1008.69 1009.79 1009.71 1009.94 1009.92 1009.71 1008.45 1007.39 1006.17 1005.40 1004.63 1004.44 1003.51 1002.82 1002.56 1001.88 1001.28 1000.84 1000.10 999.85 999.56 1000.07 1000.26 1000.46 1000.47 1000.84 1000.92 1000.82
1021.67 1021.25 1020.84 1020.40 1019.89 1019.36 1018.85 1018.38 1017.91 1017.53 1017.40 1017.49 1017.33 1016.85 1015.83 1012.68 1009.27 1008.33 1009.17 1009.10 1008.79 1008.42 1008.28 1007.46 1006.27 1005.11 1003.60 1003.80 1003.63 1002.10 1001.93 1001.94 1001.44 1001.22 1000.69 1000.15 999.93 999.73 999.72 1000.22 1000.31 1000.30 1000.55 1000.57 1000.14
1021.69 1021.25 1020.78 1020.24 1019.70 1019.21 1018.73 1018.27 1017.84 1017.44 1017.16 1016.92 1016.78 1016.85 1015.49 1011.66 1008.76 1008.44 1008.52 1008.65 1008.32 1007.43 1006.94 1006.60 1004.96 1004.25 1003.30 1002.56 1002.19 1002.04 1001.61 1001.22 1001.06 1000.81 1000.46 1000.10 999.40 999.61 999.51 999.70 999.57 999.76 999.82 999.85 999.42
1021.70 1021.24 1020.75 1020.19 1019.60 1019.00 1018.41 1017.93 1017.46 1017.03 1016.80 1016.63 1016.50 1016.06 1013.71 1010.49 1009.11 1008.88 1008.76 1008.33 1007.88 1007.28 1006.56 1005.38 1004.97 1003.90 1002.98 1002.06 1001.94 1001.48 1000.93 1000.49 1000.02 1000.04 999.82 1000.31 998.71 998.75 999.16 999.09 998.96 998.88 998.95 998.89 998.66
1021.57 1021.06 1020.52 1019.96 1019.37 1018.78 1018.17 1017.46 1016.78 1016.27 1015.94 1015.80 1015.77 1015.15 1011.89 1009.53 1008.84 1008.42 1008.26 1007.66 1007.62 1007.62 1007.24 1006.19 1004.91 1003.97 1003.16 1002.87 1001.90 1001.28 1000.86 999.58 999.19 999.43 999.43 1000.05 996.92 998.45 998.71 998.32 997.82 997.65 997.77 997.65 998.14
1021.46 1021.00 1020.51 1019.90 1019.21 1018.45 1017.60 1016.46 1015.76 1015.33 1015.11 1015.08 1014.80 1013.65 1009.81 1008.37 1008.45 1008.05 1008.15 1007.64 1007.16 1006.59 1006.50 1006.79 1005.81 1004.09 1003.66 1002.86 1001.87 1000.40 998.83 998.32 998.57 998.69 998.59 998.42 996.32 997.40 997.80 997.79 997.61 997.38 997.23 997.71 997.72
1021.31 1020.75 1020.15 1019.53 1018.84 1018.04 1017.18 1015.61 1014.41 1014.87 1014.32 1013.44 1012.63 1011.71 1008.88 1007.60 1006.70 1007.56 1007.53 1007.38 1006.80 1006.21 1005.68 1005.85 1005.52 1004.22 1003.19 1001.66 998.67 998.36 998.35 998.76 997.77 997.78 997.40 996.77 995.90 996.16 997.03 997.33 997.32 996.80 996.50 996.44 996.94
1021.06 1020.51 1019.96 1019.33 1018.54 1017.68 1016.47 1013.25 1013.07 1012.61 1011.69 1010.50 1009.44 1008.75 1007.11 1006.76 1006.63 1006.83 1007.04 1006.87 1006.43 1005.92 1004.26 1004.51 1004.48 1001.49 998.46 999.44 998.95 998.91 998.45 997.36 996.93 996.72 996.94 996.41 995.69 995.35 996.21 996.58 996.36 996.21 995.97 995.62 996.05
1020.93 1020.27 1019.59 1018.91 1018.09 1017.31 1016.33 1013.72 1013.22 1013.50 1011.40 1009.90 1008.61 1007.53 1007.15 1007.13 1006.51 1006.36 1006.64 1006.20 1005.63 1004.61 1004.58 1003.53 1001.12 997.16 1000.54 999.73 999.51 999.11 998.37 997.04 997.15 996.48 996.33 996.06 995.38 995.16 995.39 995.51 995.74 995.76 995.49 995.51 995.61
1020.81 1020.17 1019.46 1018.70 1017.66 1016.59 1014.66 1013.80 1013.70 1013.10 1011.50 1008.50 1006.67 1005.63 1005.55 1006.04 1005.27 1005.20 1005.32 1005.28 1004.75 1003.61 1002.73 1001.30 997.03 1000.57 999.62 998.98 998.40 997.81 997.44 997.59 996.96 996.80 996.45 996.57 995.31 995.07 995.32 995.42 995.32 995.10 994.97 994.83 994.59
1020.44 1019.84 1019.20 1018.56 1017.35 1015.20 1013.74 1013.95 1013.57 1013.20 1010.97 1005.73 1005.26 1005.10 1005.51 1005.31 1004.60 1004.49 1004.28 1004.28 1003.79 1002.93 1001.91 1000.54 999.65 998.33 998.43 997.40 997.32 996.39 997.30 997.64 997.40 997.15 996.30 996.80 994.11 994.24 994.24 993.81 993.89 993.54 993.49 993.32 993.44
1020.11 1019.42 1018.75 1018.61 1017.32 1015.34 1014.49 1014.05 1013.74 1013.49 1009.98 1005.50 1004.83 1005.18 1004.87 1004.44 1003.51 1002.94 1003.21 1003.70 1003.10 1002.25 1002.29 998.42 998.91 997.85 997.03 995.16 997.05 994.61 997.11 996.95 997.15 997.15 997.09 996.39 995.25 993.57 993.52 992.77 992.49 992.19 992.11 992.14 992.45
1019.79 1019.09 1018.34 1016.20 1016.44 1015.45 1014.41 1014.30 1014.05 1013.20 1008.35 1005.75 1005.42 1005.30 1004.31 1003.76 1003.53 1002.83 1002.82 1003.02 1003.10 1002.66 1001.30 999.34 998.67 997.51 996.32 996.31 995.94 996.52 996.57 996.65 996.70 996.77 995.68 995.49 994.90 992.55 992.26 991.71 991.01 990.79 990.79 990.93 991.31
1019.44 1018.83 1018.20 1016.76 1015.64 1015.37 1015.06 1013.97 1013.61 1010.79 1008.62 1008.00 1007.17 1006.73 1006.31 1004.33 1003.55 1002.84 1002.55 1002.48 1002.21 1002.05 1001.25 999.84 998.24 996.97 996.14 996.01 995.62 995.36 995.64 995.71 995.93 995.31 993.49 994.55 993.71 991.30 991.31 990.99 990.60 990.41 990.45 990.45 991.11
1019.12 1018.35 1017.47 1016.47 1015.90 1015.52 1015.02 1014.03 1012.00 1009.52 1008.62 1008.00 1007.18 1006.41 1005.31 1004.54 1003.69 1003.01 1002.83 1002.90 1002.58 1001.98 1000.81 999.51 998.15 996.87 995.17 993.98 993.82 993.90 994.03 993.19 992.92 992.86 992.92 993.07 991.60 990.54 990.34 990.10 990.38 990.09 990.40 991.21 992.37
1018.34 1016.52 1016.33 1015.92 1016.09 1015.67 1015.28 1013.15 1010.77 1009.92 1009.65 1009.13 1008.43 1007.27 1005.55 1004.78 1004.09 1003.47 1003.21 1003.10 1003.95 1004.95 1004.35 999.90 997.06 996.06 995.35 994.53 993.81 992.65 992.73 992.56 992.74 991.97 991.54 990.34 989.80 990.12 989.61 989.46 989.77 989.66 990.29 991.25 992.65
1018.08 1015.83 1015.44 1015.97 1016.04 1015.19 1014.15 1012.51 1010.47 1010.10 1010.00 1009.61 1008.75 1008.44 1006.83 1005.48 1005.09 1004.08 1003.69 1005.78 1004.99 1005.34 1005.69 1001.51 997.97 995.62 994.26 994.81 993.10 991.68 991.82 993.05 992.20 991.08 990.18 990.06 989.13 988.96 988.64 988.22 988.93 989.35 990.01 991.05 992.76
1017.63 1015.13 1015.31 1015.63 1015.58 1014.69 1013.92 1011.97 1010.89 1010.84 1010.39 1009.81 1009.39 1008.36 1007.50 1006.91 1006.12 1005.07 1004.89 1005.59 1006.39 1005.63 1004.94 1003.00 1001.40 996.86 994.78 992.39 991.79 990.95 990.55 991.43 991.71 990.91 989.99 989.57 989.07 988.43 988.55 988.17 988.50 988.93 989.56 991.26 992.69
1016.37 1013.94 1014.92 1015.11 1015.32 1014.60 1013.47 1012.25 1011.79 1010.35 1010.03 1009.43 1009.52 1009.56 1008.27 1007.69 1006.74 1005.66 1005.57 1005.98 1006.68 1006.20 1004.97 1002.87 1001.71 998.45 994.37 992.20 991.87 990.94 990.31 990.81 989.87 990.02 989.97 989.13 989.00 989.39 988.91 989.02 989.14 988.95 990.07 991.52 992.75
1016.21 1014.22 1014.48 1014.95 1015.09 1014.65 1013.43 1012.28 1011.23 1010.89 1009.85 1009.36 1009.24 1008.80 1008.14 1007.72 1006.90 1005.95 1005.83 1007.79 1008.01 1007.62 1006.44 1005.27 1002.04 999.12 996.23 992.66 991.48 989.98 989.94 990.02 990.69 989.87 989.79 988.87 988.99 989.38 989.14 989.41 989.76 989.47 990.58 991.89 992.82
1016.49 1013.97 1013.42 1014.22 1015.15 1015.26 1014.22 1012.75 1011.79 1011.06 1010.35 1009.70 1009.34 1008.51 1008.88 1007.59 1006.54 1006.60 1006.52 1007.06 1007.68 1007.99 1007.79 1007.13 1003.54 999.47 997.02 993.58 991.23 989.64 989.17 989.13 989.70 989.32 989.12 989.15 988.86 988.97 989.43 989.83 990.37 990.66 991.36 992.17 993.08
1016.66 1015.30 1016.18 1014.98 1015.10 1015.37 1014.83 1013.34 1012.47 1011.78 1011.87 1010.85 1009.22 1008.35 1008.17 1007.45 1006.31 1005.41 1006.08 1005.73 1006.82 1007.44 1007.44 1006.38 1002.97 999.89 999.44 996.58 992.61 990.26 988.84 988.30 988.67 989.07 988.41 988.81 988.75 988.99 989.23 990.08 991.00 991.28 991.78 992.40 993.05
1018.29 1017.82 1016.89 1016.20 1015.49 1015.28 1013.92 1013.17 1012.41 1011.98 1011.92 1010.71 1009.91 1009.04 1008.20 1007.33 1006.56 1005.94 1005.20 1005.35 1006.01 1005.95 1006.16 1005.41 1003.03 1000.62 1000.01 998.53 994.16 989.80 989.21 988.79 988.89 989.43 988.91 988.78 989.16 989.38 989.49 990.20 991.10 991.65 992.02 992.53 993.15
1018.60 1018.60 1018.58 1016.45 1015.19 1014.85 1013.94 1013.60 1013.11 1012.24 1011.32 1010.90 1010.10 1009.36 1008.14 1007.16 1006.83 1006.30 1005.49 1005.18 1004.94 1004.82 1004.76 1004.59 1004.09 1001.89 1000.98 999.16 995.05 990.83 988.85 988.53 989.05 989.52 989.59 989.47 990.02 990.06 990.34 991.20 992.39 992.86 992.68 992.63 993.03
Wind_Speed
15 15 14 14 15 16 16 16 15 14 15 16 18 18 18 19 22 18 17 11 8 15 9 11 15 17 14 19 23 18 16 18 22 22 16 15 15 10 2 11 16 11 14 13 16
17 17 16 15 15 15 15 16 17 17 16 15 17 17 19 19 20 21 17 10 11 13 14 17 19 18 18 20 20 20 18 25 23 20 17 19 20 17 17 11 16 14 19 18 14
18 18 18 18 18 15 15 15 15 15 15 15 15 17 19 21 15 11 14 5 9 15 20 19 20 21 25 23 23 25 24 24 23 23 24 24 25 21 21 21 19 16 18 20 20
15 16 18 19 20 20 20 18 16 15 15 15 15 16 18 13 10 9 5 5 3 13 22 24 26 27 25 27 26 30 30 28 28 27 27 31 28 24 24 22 21 17 18 20 21
15 16 17 18 18 19 19 20 20 19 16 14 13 13 14 12 16 0 8 9 11 11 23 26 30 29 33 28 27 32 30 30 29 30 32 28 28 29 26 25 24 21 18 21 20
17 17 18 19 19 19 18 17 17 19 19 17 14 11 14 23 10 10 12 13 14 13 17 25 30 28 32 33 33 30 31 31 31 32 30 31 32 27 26 24 26 23 23 23 21
17 17 18 19 19 19 19 18 18 19 20 18 15 12 17 22 16 17 15 16 17 15 19 17 25 29 28 33 31 31 35 33 32 29 29 22 33 32 28 25 27 26 24 24 19
18 17 20 20 20 19 20 20 22 23 22 19 14 14 16 16 18 19 21 21 19 19 20 20 16 26 27 24 28 35 30 31 31 32 28 26 33 28 25 26 25 20 21 16 18
17 17 19 19 19 22 23 26 26 22 14 8 11 15 19 4 17 13 19 18 18 20 19 17 17 20 23 24 23 26 28 36 31 29 27 30 39 28 24 25 25 29 16 18 20
18 18 18 19 20 21 22 29 17 9 10 11 11 9 16 14 3 3 4 12 15 17 21 22 15 17 19 23 30 30 34 30 33 27 28 34 35 30 20 23 25 27 24 21 22
21 19 18 19 20 21 20 16 5 10 15 13 16 14 21 13 12 14 10 12 13 15 26 24 21 28 44 35 30 29 27 33 31 26 28 31 31 23 21 25 27 26 28 23 22
21 22 21 21 21 23 15 11 8 9 14 21 23 25 23 21 21 20 16 15 17 21 22 26 32 49 24 31 31 32 31 33 28 28 23 25 28 25 23 24 25 27 27 25 23
18 19 21 21 23 14 11 9 9 11 11 23 22 19 15 12 19 19 21 21 23 23 26 31 45 24 32 32 32 32 33 27 30 24 21 22 27 28 25 27 28 28 29 28 27
20 19 20 20 15 13 10 7 9 8 9 21 11 8 10 8 12 14 14 18 24 29 23 30 33 35 32 35 35 34 28 27 25 22 17 21 24 25 18 24 23 23 22 21 21
22 22 19 11 12 8 11 9 9 4 8 5 9 7 6 9 10 4 6 15 20 24 25 30 31 35 35 42 30 34 24 25 25 21 23 24 20 16 21 22 23 23 23 21 20
24 22 16 5 10 9 10 7 7 8 6 3 1 8 7 10 12 11 9 14 13 19 28 32 27 29 40 33 29 28 27 25 20 17 22 22 21 20 21 20 19 19 15 19 19
25 20 12 7 9 12 10 8 6 8 4 7 10 13 15 17 15 17 14 15 15 16 22 29 31 28 30 33 36 27 23 16 17 19 21 18 21 22 19 18 17 16 11 5 10
25 21 6 6 8 7 9 6 8 14 14 19 19 16 20 16 20 16 11 15 20 16 19 24 28 33 27 30 36 31 28 17 28 12 15 22 18 16 17 10 8 11 12 10 8
29 6 4 6 7 4 4 7 7 15 17 14 18 16 18 13 11 9 15 16 6 9 7 18 30 28 35 25 27 39 30 30 24 20 15 13 17 15 17 14 9 10 14 14 12
10 5 2 7 4 7 6 7 10 11 12 15 17 13 16 18 10 14 11 4 6 3 9 17 22 31 27 29 31 33 27 24 23 24 14 14 10 8 2 7 13 10 13 13 14
9 2 6 7 5 5 6 10 15 14 14 10 20 19 18 12 12 16 4 6 3 12 11 21 5 16 30 34 30 26 25 30 20 18 15 11 8 2 5 2 15 14 13 15 17
7 4 6 3 4 3 6 15 13 17 12 17 12 17 17 15 15 18 6 4 2 12 13 16 7 13 27 28 29 29 27 31 16 22 17 11 4 4 9 7 5 4 12 15 16
7 3 7 1 5 8 15 16 12 12 13 14 9 14 18 15 9 6 6 9 8 10 6 9 11 14 9 20 29 32 34 26 27 16 18 9 4 8 9 6 1 2 14 15 17
7 5 2 1 2 8 14 15 15 12 16 10 17 11 13 15 3 7 9 1 6 8 16 10 15 18 6 11 21 28 33 30 28 17 18 18 12 14 14 12 10 7 12 15 17
3 7 4 6 9 12 15 15 14 14 7 17 11 12 12 15 18 14 6 12 2 6 6 6 18 25 6 24 24 24 27 24 31 19 16 18 14 14 13 13 8 9 12 15 16
6 5 9 12 8 11 11 11 14 17 10 13 12 18 16 15 15 18 16 11 6 7 5 9 11 17 17 21 35 23 31 27 23 27 17 12 18 11 4 11 7 9 10 13 15
3 4 2 10 6 8 9 14 20 18 10 12 14 15 18 14 16 19 18 15 14 14 12 8 6 6 17 20 27 14 19 27 25 24 16 12 6 8 6 7 13 9 6 10 13
Wind_Direction
357 357 357 352 350 346 345 340 332 334 335 339 337 334 327 317 305 266 245 244 198 167 203 207 211 209 221 233 228 236 255 251 253 256 263 268 237 259 141 291 302 289 292 294 295
353 352 351 348 347 343 339 336 334 337 332 333 333 327 322 319 299 273 259 146 147 171 210 215 210 207 217 219 225 228 238 242 257 265 271 287 289 295 269 246 275 269 279 263 296
347 346 343 343 339 337 335 331 330 326 324 322 324 324 319 311 287 265 20 108 166 193 237 236 231 214 229 230 220 232 240 252 257 265 280 288 274 279 277 277 277 291 294 300 297
341 339 340 337 334 332 332 329 325 320 320 317 316 317 316 298 258 81 43 37 298 234 235 236 236 233 227 233 231 243 237 245 259 268 283 280 288 272 269 275 284 287 287 289 290
338 341 337 332 327 323 321 321 320 316 311 305 302 308 300 238 246 226 191 221 280 218 221 222 225 226 232 233 241 236 242 251 256 264 269 272 275 279 271 279 283 287 287 277 275
344 338 333 330 326 321 314 309 306 303 304 304 300 293 262 265 281 295 303 279 259 262 222 232 232 230 240 239 236 243 249 253 258 264 267 268 270 264 259 265 277 275 273 270 276
336 336 331 327 325 319 313 306 299 294 294 291 284 268 269 259 293 295 278 270 271 270 265 240 241 244 242 246 248 255 256 259 255 256 262 269 270 261 268 268 271 270 268 258 266
331 329 330 327 322 316 310 302 293 288 289 284 260 253 260 270 279 255 252 256 249 247 256 279 260 250 245 263 248 250 255 257 249 250 247 246 260 265 272 270 273 272 269 269 273
332 330 326 323 321 317 313 303 295 285 272 239 216 225 262 101 234 252 252 259 264 247 234 242 264 248 231 240 253 238 243 241 249 245 250 244 255 257 263 268 261 262 269 269 271
334 334 329 326 321 315 307 291 276 284 227 201 243 236 244 257 249 295 268 265 258 244 225 217 229 235 230 219 225 227 236 244 255 255 248 246 255 258 274 268 267 277 273 260 275
338 334 330 323 318 313 311 293 215 204 218 268 293 233 294 270 277 261 259 260 237 234 222 203 211 219 219 218 236 242 246 247 249 247 238 257 269 264 250 255 263 274 279 272 269
338 335 331 325 317 311 290 322 357 308 293 280 270 261 260 272 271 260 251 237 233 229 220 214 217 222 221 229 229 243 252 252 263 265 260 260 268 271 270 282 285 280 278 277 278
332 327 325 323 313 289 321 313 328 310 278 281 266 259 248 236 244 243 233 224 239 230 226 222 226 227 222 231 234 231 235 245 255 262 263 273 273 272 268 265 262 262 263 260 258
328 322 321 327 282 332 292 20 295 336 278 263 195 203 184 225 240 224 247 235 226 238 234 235 238 235 224 230 228 236 230 242 255 266 264 251 266 258 263 265 268 273 271 268 259
328 321 316 309 312 304 350 316 340 309 276 112 117 94 262 237 328 181 251 213 244 236 232 240 229 233 236 227 227 241 234 238 238 246 260 253 260 273 265 265 264 259 255 259 251
327 330 322 231 215 282 301 311 261 236 246 54 111 347 257 261 253 269 226 206 248 241 254 244 247 234 234 243 228 238 232 241 244 250 246 242 253 266 268 276 284 284 260 249 230
328 328 304 309 337 331 312 266 249 264 358 46 343 316 283 291 280 266 261 249 231 210 235 243 246 244 239 222 238 224 216 221 224 225 245 242 246 260 274 275 280 291 256 226 105
323 312 195 317 323 322 290 274 262 347 11 349 337 312 294 277 271 271 253 261 250 270 254 226 228 233 234 231 214 222 206 213 213 214 231 223 243 256 254 253 271 263 235 130 157
311 224 253 15 327 315 276 270 343 3 343 328 315 298 278 322 306 277 259 259 338 19 289 266 232 226 226 229 236 211 213 216 248 218 245 236 222 238 248 248 246 233 186 150 161
304 283 278 326 319 274 277 295 337 355 337 324 314 306 317 319 272 270 271 324 309 268 291 282 257 221 223 219 240 224 208 204 224 239 224 242 241 238 186 199 174 197 179 154 154
261 270 82 325 288 287 300 311 332 342 312 315 312 311 311 327 300 288 223 159 239 301 275 287 287 261 234 202 214 215 200 213 220 229 229 235 248 182 198 227 181 196 163 151 161
282 278 65 308 290 278 297 329 305 292 303 305 339 300 310 304 280 290 219 350 264 313 293 274 252 265 224 208 215 215 214 204 217 206 237 212 146 80 174 242 357 328 124 152 157
291 279 141 281 347 331 322 324 337 328 312 307 293 303 305 310 306 316 342 51 356 309 317 1 236 258 222 226 205 215 209 202 220 221 204 218 175 211 141 105 72 132 140 154 154
292 297 105 41 20 316 323 311 327 332 323 317 308 311 293 299 245 274 306 106 4 296 290 295 262 256 254 223 197 210 202 202 201 218 185 222 128 146 140 115 87 121 141 154 161
293 27 12 307 328 319 299 291 317 329 324 298 297 299 294 308 311 320 298 302 178 241 248 262 249 244 259 300 281 209 209 198 192 203 220 181 197 173 144 94 90 114 159 158 160
327 351 338 299 284 309 302 308 332 325 327 312 326 318 310 294 305 303 315 313 280 240 237 278 275 262 248 287 284 191 212 197 197 209 209 170 200 206 262 106 67 94 170 169 166
356 317 335 288 280 300 308 322 310 311 302 285 301 313 304 319 318 307 300 290 279 288 298 287 327 175 243 256 268 207 212 187 195 199 211 194 206 174 141 61 44 25 11 183 174